Weather History for Yazd, Iran

Change the Weather History Date:

Wednesday, February 6, 2013

  Actual Average Record
Temperature  
Mean Temperature 58 °F -  
Max Temperature 75 °F 61 °F - ()
Min Temperature 41 °F 36 °F - ()
Degree Days  
Heating Degree Days 7    
Growing Degree Days 8 (Base 50)    
Moisture  
Dew Point 21 °F    
Average Humidity 27    
Maximum Humidity 42    
Minimum Humidity 5    
Precipitation  
Precipitation 0.00 in 0.02 in - ()
Sea Level Pressure  
Sea Level Pressure 30.26 in    
Wind  
Wind Speed 6 mph ()    
Max Wind Speed 12 mph    
Max Gust Speed -    
Visibility 8.1 miles    
Events      
T = Trace of Precipitation, MM = Missing Value Source: Averaged Metar Reports

Daily Weather History Graph

Daily Weather History Graph

Search for Another Location

Airport:

Trip Planner

Search our weather history database for the weather conditions in past years. The results will help you decide how hot, cold, wet, or windy it might be!

Date:

Astronomy

Feb. 06, 2013 Rise Set
Actual Time 6:42 AM IRST 5:31 PM IRST
Civil Twilight 6:17 AM IRST 5:56 PM IRST
Nautical Twilight 5:48 AM IRST 6:25 PM IRST
Astronomical Twilight 5:19 AM IRST 6:54 PM IRST
Moon 2:55 AM IRST (2/6) 1:31 PM IRST (2/6)
Length of Visible Light 11h 39m
Length of Day
10h 48m
Waning Crescent, 20% of the Moon is Illuminated
Feb 6
Waning Crescent
Feb 10
New
Feb 18
First Quarter
Feb 25
Full
Mar 5
Last Quarter

Hourly Weather History & Observations

Time (IRST) Temp. Windchill Dew Point Humidity Pressure Visibility Wind Dir Wind Speed Gust Speed Precip Events Conditions
12:20 AM 42.8 °F 37.5 °F 21.2 °F 42% 30.24 in - ESE 9.2 mph - N/A   Clear
12:30 AM 42.8 °F 37.5 °F 21.2 °F 42% 30.24 in - ESE 9.2 mph - N/A   Clear
1:20 AM 44.6 °F 39.7 °F 15.8 °F 31% 30.24 in - SE 9.2 mph - N/A   Clear
1:30 AM 44.6 °F 39.7 °F 15.8 °F 31% 30.24 in - SE 9.2 mph - N/A   Clear
2:20 AM 44.6 °F 38.8 °F 15.8 °F 31% 30.24 in - SE 11.5 mph - N/A   Clear
2:30 AM 44.6 °F 38.8 °F 15.8 °F 31% 30.24 in - SE 11.5 mph - N/A   Clear
3:20 AM 42.8 °F 37.5 °F 15.8 °F 34% 30.24 in - ESE 9.2 mph - N/A   Clear
3:30 AM 42 °F - 15 °F 21% 30.20 in 6 mi ESE 8.9 mph - -  
4:20 AM 42.8 °F 36.6 °F 15.8 °F 34% 30.24 in - SE 11.5 mph - N/A   Clear
4:30 AM 42.8 °F 36.6 °F 15.8 °F 34% 30.24 in - SE 11.5 mph - N/A   Clear
5:30 AM 42.8 °F 36.6 °F 14.0 °F 31% 30.27 in - ESE 11.5 mph - N/A   Clear
6:20 AM 41.0 °F 35.2 °F 14.0 °F 33% 30.27 in 6.2 mi SSE 9.2 mph - N/A   Partly Cloudy
7:30 AM 42.8 °F 38.6 °F 15.8 °F 34% 30.30 in 6.2 mi SE 6.9 mph - N/A   Partly Cloudy
8:30 AM 46.4 °F 41.1 °F 15.8 °F 29% 30.33 in - SE 11.5 mph - N/A   Clear
9:30 AM 52 °F - 19 °F 15% 30.29 in 12 mi ESE 8.9 mph - -   Clear
9:30 AM 51.8 °F - 19.4 °F 28% 30.33 in - ESE 9.2 mph - N/A   Clear
10:30 AM 57.2 °F - 17.6 °F 21% 30.33 in - SE 9.2 mph - N/A   Clear
11:20 AM 64.4 °F - 19.4 °F 18% 30.33 in - SE 9.2 mph - N/A   Clear
11:30 AM 64.4 °F - 19.4 °F 18% 30.33 in - SE 9.2 mph - N/A   Clear
12:20 PM 66.2 °F - 17.6 °F 15% 30.30 in - East 4.6 mph - N/A   Clear
12:30 PM 66.2 °F - 17.6 °F 15% 30.30 in - East 4.6 mph - N/A   Clear
1:20 PM 69.8 °F - 24.8 °F 18% 30.27 in - NE 4.6 mph - N/A   Clear
1:30 PM 69.8 °F - 24.8 °F 18% 30.27 in - NE 4.6 mph - N/A   Clear
2:20 PM 73.4 °F - 19.4 °F 13% 30.24 in - South 4.6 mph - N/A   Clear
2:30 PM 73.4 °F - 19.4 °F 13% 30.24 in - South 4.6 mph - N/A   Clear
3:20 PM 75.2 °F - 17.6 °F 11% 30.24 in - North 4.6 mph - N/A   Clear
3:30 PM 75 °F - 18 °F 5% 30.14 in 12 mi North 4.5 mph - -   Clear
3:30 PM 75.2 °F - 17.6 °F 11% 30.24 in - North 4.6 mph - N/A   Clear
4:20 PM 71.6 °F - 17.6 °F 13% 30.24 in - NNE 4.6 mph - N/A   Clear
4:30 PM 71.6 °F - 17.6 °F 13% 30.24 in - NNE 4.6 mph - N/A   Clear
5:00 PM 71.6 °F - 17.6 °F 13% 30.24 in - Calm Calm - N/A   Clear
5:20 PM 66.2 °F - 24.8 °F 21% 30.24 in - Calm Calm - N/A   Clear
5:30 PM 66.2 °F - 24.8 °F 21% 30.24 in - Calm Calm - N/A   Clear
6:00 PM 64.4 °F - 23.0 °F 21% 30.24 in - Calm Calm - N/A   Clear
6:20 PM 62.6 °F - 32.0 °F 32% 30.24 in - Calm Calm - N/A   Clear
6:30 PM 62.6 °F - 32.0 °F 32% 30.24 in - Calm Calm - N/A   Clear
7:00 PM 60.8 °F - 30.2 °F 31% 30.27 in - Calm Calm - N/A   Clear
7:20 PM 55.4 °F - 26.6 °F 33% 30.27 in - Calm Calm - N/A   Clear
7:30 PM 55.4 °F - 26.6 °F 33% 30.27 in - Calm Calm - N/A   Clear
8:00 PM 53.6 °F - 26.6 °F 35% 30.27 in - SSW 4.6 mph - N/A   Clear
8:20 PM 51.8 °F - 24.8 °F 35% 30.30 in - South 6.9 mph - N/A   Clear
8:30 PM 51.8 °F - 24.8 °F 35% 30.30 in - South 6.9 mph - N/A   Clear
9:00 PM 51.8 °F - 24.8 °F 35% 30.27 in - Calm Calm - N/A   Clear
9:20 PM 50.0 °F - 24.8 °F 37% 30.27 in - SW 4.6 mph - N/A   Clear
9:30 PM 51 °F - 25 °F 23% 30.24 in 6 mi SW 4.5 mph - -  
9:30 PM 50.0 °F - 24.8 °F 37% 30.27 in - SW 4.6 mph - N/A   Clear
10:00 PM 50.0 °F - 24.8 °F 37% 30.27 in - South 4.6 mph - N/A   Clear
10:20 PM 50.0 °F - 24.8 °F 37% 30.30 in - Calm Calm - N/A   Clear
10:30 PM 50.0 °F - 24.8 °F 37% 30.30 in - Calm Calm - N/A   Clear
11:20 PM 48.2 °F - 23.0 °F 37% 30.27 in - Calm Calm - N/A   Clear
11:30 PM 48.2 °F - 23.0 °F 37% 30.27 in - Calm Calm - N/A   Clear